User: anonymous   Login
Location: Charbonni�res
(45.9952°N, 2.9982°E)
Time: 07:19:01
(UTC+00:00)
Language:

Cosmos 1709 Rocket - Orbit

View from above orbital plane
View from above orbital plane
View from above satellite
View from above satellite

Ground track
Ground track

The orbit data is extracted from the following two-line orbital elements,

1 16369U 85116B   21058.10932385  .00000153  00000-0  13949-3 0  9991
2 16369  82.9345  63.5344 0035896 340.4249  86.3730 13.76872263767877
Epoch (UTC): 27 February 2021 02:37:25
Eccentricity: 0.0035896
inclination: 82.9345°
perigee height: 948 km
apogee height: 1001 km
right ascension of ascending node: 63.5344°
argument of perigee: 340.4249°
revolutions per day: 13.76872263
mean anomaly at epoch: 86.3730°
orbit number at epoch: 76787

The dashed part of the orbit path shows where the satellite is in the earth's shadow,  

DLR